| time (UTC) | temp F | wind direction | speed MPH | gust MPH | rain 1hr in | rain 24hr in | rain mn in | humidity % | barometer mb |
| 20260906003016 | 71 | 338 | 2.0 | 4.0 | 0.00 | 0.00 | 0.00 | 61 | 1022.4 |
| 20260906002517 | 71 | 338 | 1.0 | 4.0 | 0.00 | 0.00 | 0.00 | 61 | 1022.5 |
| 20260906002016 | 71 | 338 | 1.0 | 3.0 | 0.00 | 0.00 | 0.00 | 61 | 1022.4 |
| 20260906001516 | 71 | 0.0 | 3.0 | 0.00 | 0.00 | 0.00 | 61 | 1022.4 | |
| 20260906001016 | 71 | 315 | 1.0 | 4.0 | 0.00 | 0.00 | 0.00 | 60 | 1022.4 |
| 20260906000516 | 71 | 338 | 1.0 | 4.0 | 0.00 | 0.00 | 0.00 | 60 | 1022.4 |
| 20260906000018 | 71 | 338 | 1.0 | 4.0 | 0.00 | 0.00 | 0.00 | 60 | 1022.3 |
| 20260905235516 | 71 | 315 | 1.0 | 3.0 | 0.00 | 0.00 | 0.00 | 60 | 1022.3 |
| 20260905235016 | 71 | 0.0 | 3.0 | 0.00 | 0.00 | 0.00 | 60 | 1022.2 | |
| 20260905234516 | 71 | 293 | 1.0 | 3.0 | 0.00 | 0.00 | 0.00 | 59 | 1022.3 |
| 20260905234016 | 71 | 248 | 1.0 | 3.0 | 0.00 | 0.00 | 0.00 | 59 | 1022.4 |
| 20260905233516 | 71 | 270 | 2.0 | 4.0 | 0.00 | 0.00 | 0.00 | 59 | 1022.4 |
| 20260905233016 | 71 | 248 | 2.0 | 4.0 | 0.00 | 0.00 | 0.00 | 59 | 1022.4 |
| 20260905232516 | 71 | 293 | 2.0 | 4.0 | 0.00 | 0.00 | 0.00 | 59 | 1022.3 |
| 20260905232016 | 71 | 293 | 2.0 | 4.0 | 0.00 | 0.00 | 0.00 | 59 | 1022.2 |
| 20260905231516 | 71 | 293 | 1.0 | 3.0 | 0.00 | 0.00 | 0.00 | 59 | 1022.1 |
| 20260905231016 | 72 | 293 | 2.0 | 4.0 | 0.00 | 0.00 | 0.00 | 59 | 1022.1 |
| 20260905230516 | 72 | 293 | 2.0 | 4.0 | 0.00 | 0.00 | 0.00 | 58 | 1022.1 |
| 20260905230016 | 72 | 315 | 1.0 | 4.0 | 0.00 | 0.00 | 0.00 | 58 | 1022.1 |
| 20260905225516 | 72 | 315 | 1.0 | 3.0 | 0.00 | 0.00 | 0.00 | 58 | 1022.1 |
| 20260905225016 | 72 | 338 | 1.0 | 3.0 | 0.00 | 0.00 | 0.00 | 57 | 1022.1 |
| 20260905224516 | 72 | 315 | 1.0 | 3.0 | 0.00 | 0.00 | 0.00 | 57 | 1022.0 |
| 20260905224016 | 72 | 315 | 2.0 | 4.0 | 0.00 | 0.00 | 0.00 | 57 | 1022.1 |
| 20260905223516 | 72 | 315 | 1.0 | 4.0 | 0.00 | 0.00 | 0.00 | 56 | 1022.0 |
| 20260905223016 | 72 | 315 | 1.0 | 3.0 | 0.00 | 0.00 | 0.00 | 56 | 1021.9 |
| 20260905222516 | 73 | 338 | 1.0 | 3.0 | 0.00 | 0.00 | 0.00 | 55 | 1021.9 |
| 20260905222015 | 73 | 0 | 1.0 | 3.0 | 0.00 | 0.00 | 0.00 | 55 | 1021.9 |
| 20260905221516 | 73 | 315 | 1.0 | 3.0 | 0.00 | 0.00 | 0.00 | 55 | 1021.8 |
| 20260905221016 | 73 | 315 | 1.0 | 3.0 | 0.00 | 0.00 | 0.00 | 54 | 1021.8 |
| 20260905220516 | 73 | 0.0 | 2.0 | 0.00 | 0.00 | 0.00 | 54 | 1021.7 | |
| 20260905220016 | 73 | 315 | 1.0 | 2.0 | 0.00 | 0.00 | 0.00 | 54 | 1021.8 |
| 20260905215515 | 73 | 315 | 1.0 | 3.0 | 0.00 | 0.00 | 0.00 | 54 | 1021.9 |
| 20260905215015 | 73 | 0.0 | 2.0 | 0.00 | 0.00 | 0.00 | 53 | 1021.8 | |
| 20260905214515 | 73 | 0.0 | 2.0 | 0.00 | 0.00 | 0.00 | 53 | 1021.7 | |
| 20260905214015 | 74 | 0 | 1.0 | 2.0 | 0.00 | 0.00 | 0.00 | 53 | 1021.6 |
| 20260905213515 | 74 | 0.0 | 1.0 | 0.00 | 0.00 | 0.00 | 52 | 1021.6 | |
| 20260905213015 | 74 | 0.0 | 2.0 | 0.00 | 0.00 | 0.00 | 52 | 1021.5 | |
| 20260905212515 | 74 | 0.0 | 1.0 | 0.00 | 0.00 | 0.00 | 52 | 1021.4 | |
| 20260905212015 | 74 | 0.0 | 0.0 | 0.00 | 0.00 | 0.00 | 52 | 1021.2 | |
| 20260905211515 | 74 | 0.0 | 0.0 | 0.00 | 0.00 | 0.00 | 51 | 1021.3 | |
| 20260905211015 | 74 | 0.0 | 1.0 | 0.00 | 0.00 | 0.00 | 51 | 1021.2 | |
| 20260905210515 | 74 | 0.0 | 1.0 | 0.00 | 0.00 | 0.00 | 51 | 1021.2 | |
| 20260905210015 | 74 | 0.0 | 2.0 | 0.00 | 0.00 | 0.00 | 51 | 1021.1 | |
| 20260905205515 | 74 | 0 | 1.0 | 3.0 | 0.00 | 0.00 | 0.00 | 51 | 1021.1 |
| 20260905205017 | 74 | 0 | 1.0 | 3.0 | 0.00 | 0.00 | 0.00 | 51 | 1021.0 |
| 20260905204517 | 74 | 23 | 2.0 | 5.0 | 0.00 | 0.00 | 0.00 | 51 | 1020.9 |
| 20260905204015 | 74 | 23 | 1.0 | 4.0 | 0.00 | 0.00 | 0.00 | 51 | 1020.8 |
| 20260905203517 | 74 | 23 | 1.0 | 4.0 | 0.00 | 0.00 | 0.00 | 51 | 1020.8 |
| 20260905203018 | 74 | 45 | 1.0 | 2.0 | 0.00 | 0.00 | 0.00 | 51 | 1020.7 |
| 20260905202517 | 74 | 45 | 1.0 | 3.0 | 0.00 | 0.00 | 0.00 | 51 | 1020.6 |
| 20260905202015 | 74 | 45 | 1.0 | 3.0 | 0.00 | 0.00 | 0.00 | 51 | 1020.6 |
| 20260905201517 | 75 | 45 | 1.0 | 3.0 | 0.00 | 0.00 | 0.00 | 51 | 1020.6 |
| 20260905201017 | 75 | 45 | 1.0 | 2.0 | 0.00 | 0.00 | 0.00 | 50 | 1020.6 |
| 20260905200517 | 75 | 45 | 1.0 | 3.0 | 0.00 | 0.00 | 0.00 | 50 | 1020.6 |
| 20260905200017 | 75 | 68 | 1.0 | 4.0 | 0.00 | 0.00 | 0.00 | 50 | 1020.5 |
| 20260905195516 | 75 | 45 | 1.0 | 4.0 | 0.00 | 0.00 | 0.00 | 50 | 1020.4 |
| 20260905195017 | 75 | 45 | 1.0 | 3.0 | 0.00 | 0.00 | 0.00 | 50 | 1020.4 |
| 20260905194517 | 75 | 45 | 2.0 | 5.0 | 0.00 | 0.00 | 0.00 | 50 | 1020.3 |
| 20260905194017 | 75 | 45 | 1.0 | 4.0 | 0.00 | 0.00 | 0.00 | 50 | 1020.3 |
| 20260905193517 | 75 | 45 | 2.0 | 5.0 | 0.00 | 0.00 | 0.00 | 49 | 1020.2 |
| 20260905193017 | 75 | 45 | 2.0 | 5.0 | 0.00 | 0.00 | 0.00 | 49 | 1020.2 |
| 20260905192517 | 75 | 45 | 2.0 | 4.0 | 0.00 | 0.00 | 0.00 | 49 | 1020.1 |
| 20260905192017 | 75 | 45 | 2.0 | 4.0 | 0.00 | 0.00 | 0.00 | 48 | 1020.0 |
| 20260905191517 | 75 | 45 | 2.0 | 6.0 | 0.00 | 0.00 | 0.00 | 48 | 1019.9 |
| 20260905191018 | 76 | 45 | 3.0 | 7.0 | 0.00 | 0.00 | 0.00 | 48 | 1019.8 |
| 20260905190517 | 76 | 23 | 2.0 | 5.0 | 0.00 | 0.00 | 0.00 | 48 | 1019.6 |
| 20260905190017 | 76 | 45 | 3.0 | 7.0 | 0.00 | 0.00 | 0.00 | 47 | 1019.6 |
| 20260905185516 | 76 | 45 | 3.0 | 6.0 | 0.00 | 0.00 | 0.00 | 47 | 1019.5 |
| 20260905185017 | 76 | 45 | 2.0 | 6.0 | 0.00 | 0.00 | 0.00 | 47 | 1019.4 |
| 20260905184517 | 76 | 45 | 3.0 | 6.0 | 0.00 | 0.00 | 0.00 | 46 | 1019.4 |
| 20260905184017 | 77 | 45 | 3.0 | 7.0 | 0.00 | 0.00 | 0.00 | 46 | 1019.4 |
| 20260905183516 | 77 | 45 | 4.0 | 9.0 | 0.00 | 0.00 | 0.00 | 46 | 1019.2 |
| 20260905183017 | 77 | 23 | 5.0 | 10.0 | 0.00 | 0.00 | 0.00 | 46 | 1019.2 |
| 20260905182517 | 77 | 23 | 5.0 | 11.0 | 0.00 | 0.00 | 0.00 | 46 | 1019.1 |
| 20260905182018 | 77 | 23 | 4.0 | 9.0 | 0.00 | 0.00 | 0.00 | 46 | 1019.0 |
| 20260905181516 | 77 | 23 | 6.0 | 12.0 | 0.00 | 0.00 | 0.00 | 45 | 1019.0 |
| 20260905181016 | 77 | 23 | 6.0 | 12.0 | 0.00 | 0.00 | 0.00 | 45 | 1018.8 |
| 20260905180516 | 77 | 23 | 5.0 | 11.0 | 0.00 | 0.00 | 0.00 | 45 | 1018.8 |
| 20260905180017 | 77 | 45 | 4.0 | 9.0 | 0.00 | 0.00 | 0.00 | 44 | 1018.7 |
| 20260905175517 | 78 | 45 | 3.0 | 7.0 | 0.00 | 0.00 | 0.00 | 44 | 1018.5 |
| 20260905175017 | 78 | 45 | 3.0 | 6.0 | 0.00 | 0.00 | 0.00 | 44 | 1018.5 |
| 20260905174516 | 78 | 23 | 3.0 | 7.0 | 0.00 | 0.00 | 0.00 | 43 | 1018.5 |
| 20260905174017 | 79 | 23 | 5.0 | 10.0 | 0.00 | 0.00 | 0.00 | 43 | 1018.5 |
| 20260905173516 | 79 | 23 | 5.0 | 11.0 | 0.00 | 0.00 | 0.00 | 42 | 1018.4 |
| 20260905173016 | 79 | 23 | 5.0 | 11.0 | 0.00 | 0.00 | 0.00 | 42 | 1018.3 |
| 20260905172516 | 80 | 45 | 6.0 | 13.0 | 0.00 | 0.00 | 0.00 | 42 | 1018.2 |
| 20260905172016 | 80 | 23 | 6.0 | 13.0 | 0.00 | 0.00 | 0.00 | 41 | 1018.1 |
| 20260905171516 | 80 | 23 | 7.0 | 14.0 | 0.00 | 0.00 | 0.00 | 40 | 1018.1 |
| 20260905171017 | 81 | 23 | 7.0 | 13.0 | 0.00 | 0.00 | 0.00 | 40 | 1018.0 |
| 20260905170516 | 81 | 23 | 8.0 | 14.0 | 0.00 | 0.00 | 0.00 | 39 | 1017.8 |
| 20260905170016 | 82 | 45 | 7.0 | 17.0 | 0.00 | 0.00 | 0.00 | 39 | 1017.7 |
| 20260905165517 | 82 | 45 | 7.0 | 14.0 | 0.00 | 0.00 | 0.00 | 38 | 1017.6 |
| 20260905165017 | 83 | 45 | 8.0 | 16.0 | 0.00 | 0.00 | 0.00 | 38 | 1017.5 |
| 20260905164516 | 83 | 23 | 7.0 | 13.0 | 0.00 | 0.00 | 0.00 | 38 | 1017.5 |
| 20260905164017 | 83 | 23 | 8.0 | 15.0 | 0.00 | 0.00 | 0.00 | 37 | 1017.5 |
| 20260905163516 | 83 | 23 | 7.0 | 13.0 | 0.00 | 0.00 | 0.00 | 37 | 1017.5 |
| 20260905163016 | 84 | 23 | 9.0 | 17.0 | 0.00 | 0.00 | 0.00 | 37 | 1017.5 |
| 20260905162516 | 84 | 23 | 11.0 | 21.0 | 0.00 | 0.00 | 0.00 | 37 | 1017.4 |
| 20260905162017 | 84 | 23 | 8.0 | 15.0 | 0.00 | 0.00 | 0.00 | 37 | 1017.5 |
| 20260905161516 | 84 | 23 | 9.0 | 16.0 | 0.00 | 0.00 | 0.00 | 37 | 1017.4 |
| 20260905161016 | 85 | 23 | 8.0 | 16.0 | 0.00 | 0.00 | 0.00 | 36 | 1017.3 |
| 20260905160516 | 86 | 23 | 9.0 | 20.0 | 0.00 | 0.00 | 0.00 | 36 | 1017.3 |
| 20260905160016 | 86 | 23 | 10.0 | 22.0 | 0.00 | 0.00 | 0.00 | 36 | 1017.2 |
| 20260905155516 | 87 | 23 | 10.0 | 19.0 | 0.00 | 0.00 | 0.00 | 35 | 1017.2 |
| 20260905155016 | 87 | 23 | 11.0 | 20.0 | 0.00 | 0.00 | 0.00 | 35 | 1017.1 |
| 20260905154517 | 87 | 23 | 10.0 | 17.0 | 0.00 | 0.00 | 0.00 | 34 | 1017.0 |
| 20260905154016 | 88 | 23 | 9.0 | 18.0 | 0.00 | 0.00 | 0.00 | 34 | 1017.0 |
| 20260905153516 | 88 | 23 | 9.0 | 17.0 | 0.00 | 0.00 | 0.00 | 34 | 1016.9 |
| 20260905153016 | 88 | 23 | 10.0 | 21.0 | 0.00 | 0.00 | 0.00 | 34 | 1016.8 |
| 20260905152514 | 88 | 23 | 11.0 | 21.0 | 0.00 | 0.00 | 0.00 | 34 | 1016.8 |